Regional Weather Roundup
Issued by NWS

Home | Current Version | Previous Version | Text Only | Print | Product List | Glossary Off
Versions: 1 2 3 4 5 6 7 8 9 10 11 12 13 14 15 16 17 18 19 20 21 22 23 24 25 26 27 28 29 30 31 32 33 34 35 36 37 38 39 40 41 42 43 44 45 46 47 48 49 50

000
ASUS43 KIND 221809
RWRIN

WEATHER ROUNDUP FOR INDIANA
NATIONAL WEATHER SERVICE INDIANAPOLIS IN
200 PM EDT FRI MAY 22 2015

NOTE: "FAIR" INDICATES FEW OR NO CLOUDS BELOW 12,000 FEET WITH NO
SIGNIFICANT WEATHER AND/OR OBSTRUCTIONS TO VISIBILITY.

* - STATION DOES NOT REPORT WEATHER SUCH AS PRECIPITATION OR FOG.

+ - STATION NOT QUALITY CONTROLLED BY THE NATIONAL WEATHER SERVICE.
    USE DATA WITH CAUTION...ESPECIALLY DEWPOINT AND RELATIVE
    HUMIDITY OBSERVATIONS.

INZ001>003-010>013-019-020-221900-
NORTHWEST INDIANA

CITY           SKY/WX    TMP DP  RH WIND       PRES   REMARKS
GARY /AIRPORT/ MOSUNNY   57  39  51 N9        30.25S
KNOX *+        SUNNY     68  39  34 N9        30.21R
LA PORTE +     SUNNY     71  38  29 N9        30.22S
6HR MIN TEMP:  54; 6HR MAX TEMP:  71;

MICHIGAN CITY+ SUNNY     63  37  39 N9        30.24R
MONTICELLO +   SUNNY     72  44  36 N5        30.20S
6HR MIN TEMP:  50; 6HR MAX TEMP:  72;

RENSSELAER +   SUNNY     72  37  28 N13G18    30.21R
VALPARAISO     SUNNY     70  36  28 N10       30.23R
6HR MIN TEMP:  52; 6HR MAX TEMP:  71;


$$

LMZ046-743>745-221900-
SOUTHERN LAKE MICHIGAN

STATION/POSITION TIME  TEMP    WIND        PRES    WAVE
                       AIR SEA DIR/SP/G            HT
                 (UTC) (F)     (DEG/KT/KT) (MB)    (FT)
BURNS HARBOR     1800   50      40/ 10/ 10 1024.7S
MICHIGAN CITY    1800   49      10/ 10/ 12   N/A
5NW MICH CITY    1800   48 51   30/ 10/ 14   N/A     2

$$

INZ004-005-014>016-021>024-221900-
NORTH CENTRAL INDIANA

CITY           SKY/WX    TMP DP  RH WIND       PRES   REMARKS
ELKHART        SUNNY     66  32  28 CALM      30.23S
GOSHEN         SUNNY     65  39  38 CALM      30.22R
6HR MIN TEMP:  52; 6HR MAX TEMP:  67;

LOGANSPORT +   SUNNY     70  32  24 W3        30.21S
PERU/GRISSOM   SUNNY     69  45  41 N6        30.19S
6HR MIN TEMP:  52; 6HR MAX TEMP:  69;

ROCHESTER +    SUNNY     72  37  28 N9        30.21S
SOUTH BEND     SUNNY     68  33  27 N7        30.23R
6HR MIN TEMP:  54; 6HR MAX TEMP:  69;

WARSAW +       SUNNY     68  37  32 NE7       30.21S

$$

INZ006>009-017-018-025>027-221900-
NORTHEAST INDIANA

CITY           SKY/WX    TMP DP  RH WIND       PRES   REMARKS
ANGOLA *+      SUNNY     66  34  30 NW5       30.21R
AUBURN +       SUNNY     68  34  28 N5        30.22R
FORT WAYNE     MOSUNNY   69  38  32 N8        30.21S
6HR MIN TEMP:  52; 6HR MAX TEMP:  69;

HUNTINGTON +   SUNNY     67  41  37 NE5       30.20R
6HR MIN TEMP:  51; 6HR MAX TEMP:  67;


$$

INZ028-029-035-036-043>045-051>053-221900-
WEST CENTRAL INDIANA

CITY           SKY/WX    TMP DP  RH WIND       PRES   REMARKS
CRAWFORDSVL +  SUNNY     69  38  32 SW5       30.21S
6HR MIN TEMP:  49; 6HR MAX TEMP:  69;

GREENCASTLE +  SUNNY     70  45  40 W6        30.23R
LAFAYETTE      MOSUNNY   71  50  47 CALM      30.20S
6HR MIN TEMP:  50; 6HR MAX TEMP:  71;

TERRE HAUTE    SUNNY     71  49  45 SW6       30.23R
6HR MIN TEMP:  53; 6HR MAX TEMP:  72;


$$

INZ030>032-037>040-046>048-054>057-064-065-221900-
CENTRAL INDIANA

CITY           SKY/WX    TMP DP  RH WIND       PRES   REMARKS
CP ATTERBURY + SUNNY     72  48  43 W12       30.21S
COLUMBUS       SUNNY     70  46  43 SW10      30.21S
FISHERS *+     MOSUNNY   70  54  56 NW8       30.20S
FRANKFORT +    SUNNY     72  47  41 NW6       30.23R
6HR MIN TEMP:  53; 6HR MAX TEMP:  72;

GREENWOOD *+   SUNNY     72  39  30 W6G16     30.22R
INDIANAPOLIS   MOSUNNY   71  48  43 W12       30.20S
6HR MIN TEMP:  51; 6HR MAX TEMP:  72;

-EAGLE CREEK   SUNNY     71  48  43 W7        30.20R
6HR MIN TEMP:  51; 6HR MAX TEMP:  71;

KOKOMO *+      SUNNY     70  46  43 W3        30.20S
6HR MIN TEMP:  54; 6HR MAX TEMP:  72;

MARION +       SUNNY     67  46  46 NE5       30.21S
MT COMFORT *+  SUNNY     72  32  23 NW9       30.21R
SHELBYVILLE    SUNNY     74  46  36 W8G17     30.20S
6HR MIN TEMP:  52; 6HR MAX TEMP:  74;

ZIONSVILLE +   SUNNY     71  44  37 NW8       30.22R
6HR MIN TEMP:  52; 6HR MAX TEMP:  71;


$$

INZ033-034-041-042-049-050-058-059-221900-
EAST CENTRAL INDIANA

CITY           SKY/WX    TMP DP  RH WIND       PRES   REMARKS
MUNCIE         SUNNY     70  48  45 NW8       30.20S
6HR MIN TEMP:  51; 6HR MAX TEMP:  70;


$$

INZ060-061-067>069-081>083-085>088-221900-
SOUTHWEST INDIANA

CITY           SKY/WX    TMP DP  RH WIND       PRES   REMARKS
EVANSVILLE     SUNNY     71  49  45 W8        30.27S
6HR MIN TEMP:  51; 6HR MAX TEMP:  71;

HUNTINGBURG *+ SUNNY     70  50  49 SW13G21   30.27R
6HR MIN TEMP:  48; 6HR MAX TEMP:  70;

WASHINGTON +   SUNNY     71  46  39 SW9G17    30.24S
6HR MIN TEMP:  52; 6HR MAX TEMP:  71;


$$

INZ062-063-066-070>080-084-089>092-221900-
SOUTH CENTRAL AND SOUTHEAST INDIANA

CITY           SKY/WX    TMP DP  RH WIND       PRES   REMARKS
BLOOMINGTON    SUNNY     71  48  43 W12       30.23R
6HR MIN TEMP:  52; 6HR MAX TEMP:  71;

MADISON *+     MOSUNNY   72  43  35 SW12G18   30.25S
NORTH VERNON + SUNNY     72  50  46 SW15      30.23S
SEYMOUR +      SUNNY     75  50  41 W16       30.23S

$$



USA.gov is the U.S. government's official web portal to all federal, state and local government web resources and services.